(487480) = 2014 SY217

Discovered at Mount Lemmon on 2012-05-22 by Mt. Lemmon Survey.

Orbit

Orbit type: Main Belt

Note: WebGL enabled browser required.

epoch2024-03-31.0
epoch JD2460400.5
perihelion date2019-06-27.23811
perihelion JD2458661.73811
argument of perihelion (°)199.66734
ascending node (°)146.29711
inclination (°)11.24447
eccentricity0.0661114
perihelion distance (AU)2.9813758
Tisserand w.r.t. Jupiter3.2
ΔV w.r.t. Earth (km/sec)11.2
semimajor axis (AU)3.1924318
mean anomaly (°)300.44275
mean daily motion (°/day)0.17279120
aphelion distance (AU)3.403
period (years)5.7
P-vector [x]0.96656058
P-vector [y]-0.20133737
P-vector [z]-0.15882037
Q-vector [x]0.23249371
Q-vector [y]0.94933386
Q-vector [z]0.21145187
absolute magnitude16.03
phase slope0.15
uncertainty0
referenceE2024-GD4
observations used217
oppositions13
arc length (days)6964
first opposition used2005
last opposition used2024
residual rms (arc-secs)0.74
perturbers coarse indicatorM-v
perturbers precise indicator003Ek
first observation date used2005-03-16.0
last observation date used2024-04-09.0
computer nameMPCLINUX
JD of orbit computation2457820.383760
perihelion JD uncertainty (days)1.6638E-04
argument of perihelion uncertainty (°)2.6784E-05
ascending node uncertainty (°)1.2349E-05
inclination uncertainty (°)3.3604E-06
eccentricity uncertainty 3.4232E-08
perihelion distance uncertainty (AU)1.0086E-07
Minimum Orbit Intersection Distances (in AU)
for orbit epoch: 2460400.5, reference: E2024-GD4
Mercury2.58808
Venus2.25398
Earth1.97529
Mars1.59994
Jupiter1.96193
Saturn5.79349
Uranus15.0403
Neptune26.7869

Observations

216 total observations over interval: 2005 03 16.30260 – 2023 06 08.372208
These data are available for download (format description).

Date (UT) J2000 RA J2000 Dec Magn Location Ref
2005 03 16.30260 10 49 05.80 +12 30 29.4 19.8 R G96 – Mt. Lemmon Survey MPS 752153
2005 03 16.30911 10 49 05.52 +12 30 32.0 19.4 R G96 – Mt. Lemmon Survey MPS 752153
2005 03 16.31546 10 49 05.21 +12 30 34.9 20.7 R G96 – Mt. Lemmon Survey MPS 752153
2005 03 16.32171 10 49 04.97 +12 30 37.2 21.1 R G96 – Mt. Lemmon Survey MPS 752153
2007 09 12.18651 20 32 18.20 -16 50 08.8 21.1 V G96 – Mt. Lemmon Survey MPS 752153
2007 09 12.19208 20 32 18.13 -16 50 10.2 20.8 V G96 – Mt. Lemmon Survey MPS 752153
2007 09 12.19765 20 32 18.02 -16 50 11.5 20.8 V G96 – Mt. Lemmon Survey MPS 752153
2007 09 12.20318 20 32 17.95 -16 50 13.3 21.0 V G96 – Mt. Lemmon Survey MPS 752153
2010 01 12.32942 07 52 45.91 +12 35 18.8 21.0 V G96 – Mt. Lemmon Survey MPS 752153
2010 01 12.33674 07 52 45.69 +12 35 21.8 19.1 V G96 – Mt. Lemmon Survey MPS 752153
2010 01 12.34405 07 52 45.30 +12 35 22.1 20.6 V G96 – Mt. Lemmon Survey MPS 752153
2010 01 12.35125 07 52 44.94 +12 35 23.9 20.9 V G96 – Mt. Lemmon Survey MPS 752153
2012 05 22.33903 17 01 54.08 -06 51 27.0 20.3 V G96 – Mt. Lemmon Survey MPS 752153
2012 05 22.34774 17 01 53.72 -06 51 25.8 20.7 V G96 – Mt. Lemmon Survey MPS 752153
2012 05 22.35643 17 01 53.32 -06 51 24.6 20.5 V G96 – Mt. Lemmon Survey MPS 752153
2012 06 13.34333 16 45 17.435 -06 34 46.17 20.4 w F51 – Pan-STARRS 1, Haleakala MPS 752153
2012 06 13.35807 16 45 16.758 -06 34 46.59 20.4 w F51 – Pan-STARRS 1, Haleakala MPS 752153
2012 06 13.37281 16 45 16.076 -06 34 47.10 20.5 w F51 – Pan-STARRS 1, Haleakala MPS 752153
2012 06 13.38760 16 45 15.386 -06 34 47.61 20.5 w F51 – Pan-STARRS 1, Haleakala MPS 752153
2013 07 28.33324 23 03 57.63 -07 34 42.9   691 – Steward Observatory, Kitt Peak-Spacewatch MPS 752153
2013 07 28.35087 23 03 57.41 -07 34 48.9   691 – Steward Observatory, Kitt Peak-Spacewatch MPS 752153
2013 07 28.36851 23 03 57.11 -07 34 54.4   691 – Steward Observatory, Kitt Peak-Spacewatch MPS 752153
2013 08 07.14878 23 00 39.80 -08 34 29.4 20.3 R J04 – ESA Optical Ground Station, Tenerife MPS 752153
2013 08 07.16035 23 00 39.52 -08 34 34.4 20.5 R J04 – ESA Optical Ground Station, Tenerife MPS 752153
2013 08 14.50347 22 57 06.105 -09 26 28.53 20.3 w F51 – Pan-STARRS 1, Haleakala MPS 752153
2013 08 14.51752 22 57 05.626 -09 26 34.68 20.4 w F51 – Pan-STARRS 1, Haleakala MPS 752153
2013 08 14.53158 22 57 05.153 -09 26 40.92 20.3 w F51 – Pan-STARRS 1, Haleakala MPS 752153
2013 08 14.54581 22 57 04.668 -09 26 47.24 20.4 w F51 – Pan-STARRS 1, Haleakala MPS 752153
2013 08 26.47528 22 49 51.784 -10 58 36.13 20.0 r F51 – Pan-STARRS 1, Haleakala MPS 752153
2013 08 26.48630 22 49 51.328 -10 58 41.41 20.0 r F51 – Pan-STARRS 1, Haleakala MPS 752153
2013 08 26.50173 22 49 50.689 -10 58 48.67 19.8 i F51 – Pan-STARRS 1, Haleakala MPS 752153
2013 08 26.51405 22 49 50.178 -10 58 54.44 19.8 i F51 – Pan-STARRS 1, Haleakala MPS 752153
2013 10 06.31120 22 27 05.570 -15 13 43.11 20.8 w F51 – Pan-STARRS 1, Haleakala MPS 752153
2013 10 06.32545 22 27 05.304 -15 13 46.14 20.7 w F51 – Pan-STARRS 1, Haleakala MPS 752153
2013 10 06.33969 22 27 05.055 -15 13 49.01 20.8 w F51 – Pan-STARRS 1, Haleakala MPS 752153
2013 10 06.35396 22 27 04.795 -15 13 52.02 20.9 w F51 – Pan-STARRS 1, Haleakala MPS 752153
2014 09 04.58694 04 37 55.318 +09 57 01.90 21.5 w F51 – Pan-STARRS 1, Haleakala MPS 551685
2014 09 04.59813 04 37 55.788 +09 57 00.30 21.6 w F51 – Pan-STARRS 1, Haleakala MPS 551685
2014 09 04.60932 04 37 56.231 +09 56 59.15 21.9 w F51 – Pan-STARRS 1, Haleakala MPS 551685
2014 09 20.53678 04 46 38.091 +09 12 52.52 21.6 w F51 – Pan-STARRS 1, Haleakala MPS 533817
2014 09 20.54916 04 46 38.379 +09 12 50.35 21.4 w F51 – Pan-STARRS 1, Haleakala MPS 533817
2014 09 20.56148 04 46 38.658 +09 12 47.91 21.4 w F51 – Pan-STARRS 1, Haleakala MPS 533817
2014 09 22.52432 04 47 22.881 +09 06 18.65 21.6 w F51 – Pan-STARRS 1, Haleakala MPS 533817
2014 09 22.53657 04 47 23.126 +09 06 16.29 21.4 w F51 – Pan-STARRS 1, Haleakala MPS 533817
2014 09 22.54884 04 47 23.377 +09 06 13.80 21.4 w F51 – Pan-STARRS 1, Haleakala MPS 533817
2014 09 22.56110 04 47 23.617 +09 06 11.43 21.4 w F51 – Pan-STARRS 1, Haleakala MPS 533817
2014 11 21.46933 04 30 36.543 +05 30 43.02 20.5 w F51 – Pan-STARRS 1, Haleakala MPS 547859
2014 11 21.48151 04 30 35.951 +05 30 41.42 20.4 w F51 – Pan-STARRS 1, Haleakala MPS 547859
2014 11 21.49362 04 30 35.364 +05 30 39.79 20.5 w F51 – Pan-STARRS 1, Haleakala MPS 547859
2014 11 21.50574 04 30 34.776 +05 30 38.28 20.5 w F51 – Pan-STARRS 1, Haleakala MPS 547859
2014 11 23.46046 04 29 02.282 +05 26 38.84 20.5 w F51 – Pan-STARRS 1, Haleakala MPS 547859
2014 11 23.47262 04 29 01.684 +05 26 37.32 20.4 w F51 – Pan-STARRS 1, Haleakala MPS 547859
2014 11 23.48476 04 29 01.080 +05 26 36.02 20.4 w F51 – Pan-STARRS 1, Haleakala MPS 547859
2014 11 23.49694 04 29 00.486 +05 26 34.58 20.5 w F51 – Pan-STARRS 1, Haleakala MPS 547859
2014 11 29.32961 04 24 19.72 +05 17 22.4 20.6 V 703 – Catalina Sky Survey MPS 551685
2014 11 29.33816 04 24 19.20 +05 17 21.7 19.7 V 703 – Catalina Sky Survey MPS 551685
2014 11 29.34671 04 24 18.86 +05 17 19.9 20.5 V 703 – Catalina Sky Survey MPS 551685
2014 11 29.35523 04 24 18.37 +05 17 19.4 19.9 V 703 – Catalina Sky Survey MPS 551685
2014 12 01.39326 04 22 40.095 +05 15 07.27 20.1 i F51 – Pan-STARRS 1, Haleakala MPS 551685
2014 12 01.40622 04 22 39.453 +05 15 06.30 20.4 i F51 – Pan-STARRS 1, Haleakala MPS 551685
2015 01 09.25499 03 59 57.235 +06 16 02.59 21.0 w F51 – Pan-STARRS 1, Haleakala MPS 561266
2015 01 09.26803 03 59 57.032 +06 16 05.65 21.2 w F51 – Pan-STARRS 1, Haleakala MPS 561266
2015 01 09.28116 03 59 56.827 +06 16 08.54 21.0 w F51 – Pan-STARRS 1, Haleakala MPS 561266
2015 01 09.29428 03 59 56.620 +06 16 11.55 21.2 w F51 – Pan-STARRS 1, Haleakala MPS 561266
2016 01 15.55627 09 26 46.620 +11 14 07.44 21.1 w F51 – Pan-STARRS 1, Haleakala MPS 752153
2016 01 15.56831 09 26 46.170 +11 14 10.88 21.4 w F51 – Pan-STARRS 1, Haleakala MPS 752153
2016 01 15.58035 09 26 45.744 +11 14 14.40 21.2 w F51 – Pan-STARRS 1, Haleakala MPS 752153
2016 01 15.59239 09 26 45.301 +11 14 17.77 21.1 w F51 – Pan-STARRS 1, Haleakala MPS 752153
2016 01 17.40844 09 25 40.463 +11 23 06.05 20.9 r F51 – Pan-STARRS 1, Haleakala MPS 752153
2016 01 17.42065 09 25 39.986 +11 23 09.82 21.1 r F51 – Pan-STARRS 1, Haleakala MPS 752153
2016 01 17.43301 09 25 39.535 +11 23 13.38 20.9 r F51 – Pan-STARRS 1, Haleakala MPS 752153
2016 01 17.44517 09 25 39.069 +11 23 17.11 21.0 r F51 – Pan-STARRS 1, Haleakala MPS 752153
2016 02 01.37768 09 15 22.605 +12 45 19.31 20.8 w F51 – Pan-STARRS 1, Haleakala MPS 752153
2016 02 01.38912 09 15 22.083 +12 45 23.49 20.8 w F51 – Pan-STARRS 1, Haleakala MPS 752153
2016 02 01.40055 09 15 21.550 +12 45 27.54 20.8 w F51 – Pan-STARRS 1, Haleakala MPS 752153
2016 02 01.41203 09 15 21.031 +12 45 31.61 20.6 w F51 – Pan-STARRS 1, Haleakala MPS 752153
2016 02 02.37504 09 14 38.074 +12 51 13.46 20.8 w F51 – Pan-STARRS 1, Haleakala MPS 752153
2016 02 02.38664 09 14 37.540 +12 51 17.50 20.6 w F51 – Pan-STARRS 1, Haleakala MPS 752153
2016 02 02.39824 09 14 37.010 +12 51 21.75 20.7 w F51 – Pan-STARRS 1, Haleakala MPS 752153
2016 02 09.25484 09 09 28.44 +13 32 26.4 20.5 V G96 – Mt. Lemmon Survey MPS 752153
2016 02 09.25992 09 09 28.15 +13 32 28.2 20.6 V G96 – Mt. Lemmon Survey MPS 752153
2016 02 09.26500 09 09 27.94 +13 32 30.1 20.7 V G96 – Mt. Lemmon Survey MPS 752153
2016 02 09.27009 09 09 27.73 +13 32 32.0 20.5 V G96 – Mt. Lemmon Survey MPS 752153
2016 02 09.37516 09 09 22.82 +13 33 09.4 20.6 V 691 – Steward Observatory, Kitt Peak-Spacewatch MPS 752153
2016 02 09.39387 09 09 21.97 +13 33 16.0 20.9 V 691 – Steward Observatory, Kitt Peak-Spacewatch MPS 752153
2016 02 09.41258 09 09 21.08 +13 33 23.4 21.0 V 691 – Steward Observatory, Kitt Peak-Spacewatch MPS 752153
2016 02 10.42598 09 08 35.70 +13 39 28.7 20.8 V 691 – Steward Observatory, Kitt Peak-Spacewatch MPS 752153
2016 02 10.44467 09 08 34.85 +13 39 35.1 20.9 V 691 – Steward Observatory, Kitt Peak-Spacewatch MPS 752153
2016 02 10.46334 09 08 34.06 +13 39 41.5 20.5 V 691 – Steward Observatory, Kitt Peak-Spacewatch MPS 752153
2016 02 15.34681 09 04 59.455 +14 08 51.89 20.8 r F51 – Pan-STARRS 1, Haleakala MPS 752153
